Shawnee, OK

5:01 PM CDT on May 26, 2017 (GMT -0500)
Shawnee Municipal

Weather History for KSNL - October, 2013

Change the Weather History Date:

Tuesday, October 1, 2013

  Actual Average (KTIK) Record (KTIK)
Temperature  
Mean Temperature 76 °F -  
Max Temperature 91 °F 74 °F 93 °F (2014)
Min Temperature 62 °F 55 °F 44 °F (2003)
Cooling Degree Days 12    
Growing Degree Days 26 (Base 50)    
Moisture  
Dew Point 66 °F    
Average Humidity 72    
Maximum Humidity 100    
Minimum Humidity 46    
Precipitation  
Precipitation 0.00 in - - ()
Sea Level Pressure  
Sea Level Pressure 29.92 in    
Wind  
Wind Speed 6 mph (SSE)    
Max Wind Speed 10 mph    
Max Gust Speed 17 mph    
Visibility 8 miles    
Events Fog , Rain    
Averages and records for this station are not official NWS values.
T = Trace of Precipitation, MM = Missing Value Source: NWS Daily Summary

Daily Weather History Graph

Daily Weather History Graph

Search for Another Location

Airport or City:

Trip Planner

Search our weather history database for the weather conditions in past years. The results will help you decide how hot, cold, wet, or windy it might be!

Date:

Astronomy

Oct. 01, 2013 Rise Set
Actual Time 7:22 AM CDT 7:11 PM CDT
Civil Twilight 6:57 AM CDT 7:36 PM CDT
Nautical Twilight 6:28 AM CDT 8:05 PM CDT
Astronomical Twilight 5:58 AM CDT 8:35 PM CDT
Moon 4:04 AM CDT (10/1) 5:10 PM CDT (10/1)
Length of Visible Light 12h 39m
Length of Day
11h 48m
Waning Crescent, 12% of the Moon is Illuminated
Oct 1
Waning Crescent
Oct 4
New
Oct 11
First Quarter
Oct 18
Full
Oct 26
Last Quarter

Hourly Weather History & Observations

Time (CDT) Temp. Heat Index Dew Point Humidity Pressure Visibility Wind Dir Wind Speed Gust Speed Precip Events Conditions
12:15 AM 68.0 °F - 55.4 °F 64% 29.88 in 10.0 mi Calm Calm - N/A   Clear
12:35 AM 66.2 °F - 53.6 °F 64% 29.88 in 10.0 mi SSE 4.6 mph - N/A   Clear
12:55 AM 64.4 °F - 53.6 °F 68% 29.87 in 10.0 mi SE 4.6 mph - N/A   Clear
1:15 AM 62.6 °F - 53.6 °F 72% 29.87 in 10.0 mi SE 4.6 mph - N/A   Clear
1:35 AM 62.6 °F - 55.4 °F 77% 29.87 in 10.0 mi SE 5.8 mph - N/A   Clear
1:55 AM 64.4 °F - 55.4 °F 73% 29.87 in 10.0 mi SSE 5.8 mph - N/A   Clear
2:15 AM 66.2 °F - 55.4 °F 68% 29.87 in 10.0 mi SSE 4.6 mph - N/A   Clear
2:35 AM 64.4 °F - 55.4 °F 73% 29.88 in 10.0 mi Calm Calm - N/A   Clear
2:55 AM 62.6 °F - 55.4 °F 77% 29.88 in 10.0 mi SSE 4.6 mph - N/A   Scattered Clouds
3:15 AM 62.6 °F - 55.4 °F 77% 29.88 in 10.0 mi SSE 5.8 mph - N/A   Scattered Clouds
3:35 AM 64.4 °F - 57.2 °F 77% 29.88 in 10.0 mi SSE 5.8 mph - N/A   Clear
3:55 AM 64.4 °F - 59.0 °F 83% 29.88 in 10.0 mi SSE 4.6 mph - N/A   Clear
4:15 AM 64.4 °F - 60.8 °F 88% 29.87 in 10.0 mi SSE 5.8 mph - N/A   Clear
4:35 AM 64.4 °F - 59.0 °F 83% 29.87 in 10.0 mi SE 5.8 mph - N/A   Clear
4:55 AM 62.6 °F - 60.8 °F 94% 29.88 in 10.0 mi SSE 5.8 mph - N/A   Clear
5:15 AM 62.6 °F - 60.8 °F 94% 29.89 in 10.0 mi SSE 5.8 mph - N/A   Clear
5:35 AM 62.6 °F - 62.6 °F 100% 29.89 in 10.0 mi South 4.6 mph - N/A   Clear
5:55 AM 62.6 °F - 62.6 °F 100% 29.90 in 10.0 mi SSE 5.8 mph - N/A   Clear
6:15 AM 62.6 °F - 62.6 °F 100% 29.90 in 7.0 mi SSE 6.9 mph - N/A   Scattered Clouds
6:35 AM 66.2 °F - 66.2 °F 100% 29.91 in 0.5 mi SSE 6.9 mph - N/A   Light Drizzle
6:55 AM 66.2 °F - 66.2 °F 100% 29.92 in 0.8 mi SSE 6.9 mph - N/A Rain Light Rain
7:15 AM 66.2 °F - 66.2 °F 100% 29.92 in 1.5 mi SSE 4.6 mph - N/A Rain Light Rain
7:35 AM 66.2 °F - 66.2 °F 100% 29.93 in 0.8 mi SE 5.8 mph - N/A Rain Light Rain
7:55 AM 66.2 °F - 66.2 °F 100% 29.93 in 0.2 mi SE 4.6 mph - N/A Fog Fog
8:15 AM 66.2 °F - 66.2 °F 100% 29.94 in 0.5 mi SE 5.8 mph - N/A Rain Rain
8:35 AM 68.0 °F - 68.0 °F 100% 29.94 in 0.2 mi SE 5.8 mph - N/A Rain Heavy Rain
8:55 AM 68.0 °F - 68.0 °F 100% 29.94 in 0.2 mi SE 6.9 mph - N/A Rain Rain
9:15 AM 71.6 °F - 71.6 °F 100% 29.95 in 1.0 mi SE 5.8 mph - N/A Rain Light Rain
9:35 AM 71.6 °F - 71.6 °F 100% 29.95 in 1.8 mi SSE 5.8 mph - N/A   Overcast
9:55 AM 71.6 °F - 71.6 °F 100% 29.95 in 5.0 mi SSE 6.9 mph - N/A   Mostly Cloudy
10:15 AM 77.0 °F - 75.2 °F 94% 29.96 in 10.0 mi SSE 10.4 mph - N/A   Scattered Clouds
10:35 AM 78.8 °F - 75.2 °F 89% 29.96 in 10.0 mi SSE 6.9 mph - N/A   Clear
10:55 AM 78.8 °F - 71.6 °F 78% 29.96 in 10.0 mi SSE 9.2 mph - N/A   Clear
11:15 AM 80.6 °F 83.9 °F 69.8 °F 70% 29.96 in 10.0 mi South 9.2 mph - N/A   Clear
11:35 AM 82.4 °F 86.3 °F 69.8 °F 66% 29.96 in 10.0 mi South 10.4 mph - N/A   Clear
11:55 AM 82.4 °F 85.4 °F 68.0 °F 62% 29.96 in 10.0 mi South 10.4 mph - N/A   Clear
12:15 PM 84.2 °F 88.4 °F 69.8 °F 62% 29.95 in 10.0 mi South 8.1 mph - N/A   Clear
12:35 PM 86.0 °F 90.4 °F 69.8 °F 58% 29.95 in 10.0 mi South 6.9 mph - N/A   Clear
12:55 PM 86.0 °F 89.4 °F 68.0 °F 55% 29.95 in 10.0 mi SSW 10.4 mph - N/A   Clear
1:15 PM 87.8 °F 92.6 °F 69.8 °F 55% 29.94 in 10.0 mi SSE 10.4 mph - N/A   Clear
1:35 PM 87.8 °F 91.4 °F 68.0 °F 52% 29.94 in 10.0 mi SSE 8.1 mph - N/A   Clear
1:55 PM 89.6 °F 94.7 °F 69.8 °F 52% 29.93 in 10.0 mi South 9.2 mph - N/A   Clear
2:15 PM 91.4 °F 96.8 °F 69.8 °F 49% 29.92 in 10.0 mi SSE 8.1 mph - N/A   Clear
2:35 PM 91.4 °F 96.8 °F 69.8 °F 49% 29.92 in 10.0 mi SSE 8.1 mph - N/A   Clear
2:55 PM 91.4 °F 95.4 °F 68.0 °F 46% 29.92 in 10.0 mi South 10.4 mph 17.3 mph N/A   Clear
3:15 PM 91.4 °F 95.4 °F 68.0 °F 46% 29.92 in 10.0 mi SSE 6.9 mph - N/A   Clear
3:35 PM 91.4 °F 95.4 °F 68.0 °F 46% 29.91 in 10.0 mi South 10.4 mph - N/A   Clear
3:55 PM 91.4 °F 95.4 °F 68.0 °F 46% 29.91 in 5.0 mi SSE 5.8 mph - N/A   Haze
4:15 PM 91.4 °F 95.4 °F 68.0 °F 46% 29.91 in 10.0 mi South 10.4 mph - N/A   Clear
4:35 PM 91.4 °F 95.4 °F 68.0 °F 46% 29.91 in 10.0 mi SSE 8.1 mph - N/A   Clear
4:55 PM 91.4 °F 95.4 °F 68.0 °F 46% 29.91 in 10.0 mi SSE 8.1 mph - N/A   Clear
5:15 PM 91.4 °F 95.4 °F 68.0 °F 46% 29.90 in 10.0 mi SSE 8.1 mph - N/A   Clear
5:35 PM 91.4 °F 95.4 °F 68.0 °F 46% 29.91 in 10.0 mi SSE 8.1 mph - N/A   Clear
5:55 PM 87.8 °F 89.4 °F 64.4 °F 46% 29.91 in 10.0 mi SSE 8.1 mph - N/A   Clear
6:15 PM 87.8 °F 90.4 °F 66.2 °F 49% 29.91 in 10.0 mi SE 6.9 mph - N/A   Clear
6:35 PM 87.8 °F 89.4 °F 64.4 °F 46% 29.92 in 10.0 mi SE 5.8 mph - N/A   Clear
6:55 PM 86.0 °F 87.3 °F 64.4 °F 48% 29.92 in 10.0 mi SE 5.8 mph - N/A   Clear
7:15 PM 82.4 °F 83.9 °F 64.4 °F 54% 29.92 in 10.0 mi SE 4.6 mph - N/A   Clear
7:35 PM 80.6 °F 82.3 °F 64.4 °F 58% 29.92 in 10.0 mi SE 4.6 mph - N/A   Clear
7:55 PM 78.8 °F - 64.4 °F 61% 29.92 in 10.0 mi SE 4.6 mph - N/A   Clear
8:15 PM 78.8 °F - 66.2 °F 65% 29.93 in 10.0 mi SE 5.8 mph - N/A   Clear
8:35 PM 77.0 °F - 66.2 °F 69% 29.93 in 10.0 mi SE 5.8 mph - N/A   Clear
8:55 PM 77.0 °F - 66.2 °F 69% 29.94 in 10.0 mi SE 4.6 mph - N/A   Clear
9:15 PM 77.0 °F - 66.2 °F 69% 29.94 in 10.0 mi SE 5.8 mph - N/A   Clear
9:35 PM 77.0 °F - 68.0 °F 74% 29.95 in 10.0 mi SE 4.6 mph - N/A   Clear
9:55 PM 77.0 °F - 68.0 °F 74% 29.96 in 10.0 mi SE 6.9 mph - N/A   Clear
10:15 PM 77.0 °F - 68.0 °F 74% 29.97 in 10.0 mi SE 6.9 mph - N/A   Clear
10:35 PM 77.0 °F - 69.8 °F 78% 29.97 in 7.0 mi SE 8.1 mph - N/A   Clear
10:55 PM 77.0 °F - 71.6 °F 83% 29.97 in 7.0 mi SE 6.9 mph - N/A   Clear
11:15 PM 77.0 °F - 71.6 °F 83% 29.97 in 7.0 mi SSE 8.1 mph - N/A   Clear
11:35 PM 77.0 °F - 71.6 °F 83% 29.97 in 3.0 mi SSE 6.9 mph - N/A   Clear
11:55 PM 77.0 °F - 73.4 °F 89% 29.97 in 3.0 mi SE 8.1 mph - N/A   Clear